User: anonymous   Login
Location: Unspecified
(0.0000°N, 0.0000°E)
Time: 21:41:48
(UTC+00:00)
Language:

Aureole 3 - Orbit

View from above orbital plane
View from above orbital plane
View from above satellite
View from above satellite

Ground track
Ground track

The orbit data is extracted from the following two-line orbital elements,

1 12848U 81094A   19022.87857727 +.00001408 +00000-0 +83397-4 0  9997
2 12848 082.4837 137.9836 0596820 203.2834 154.0270 14.24123988872767
Epoch (UTC): 22 January 2019 21:05:09
Eccentricity: 0.0596820
inclination: 82.4837°
perigee height: 382 km
apogee height: 1240 km
right ascension of ascending node: 137.9836°
argument of perigee: 203.2834°
revolutions per day: 14.24123988
mean anomaly at epoch: 154.0270°
orbit number at epoch: 87276

The dashed part of the orbit path shows where the satellite is in the earth's shadow,  

DLR